CW6532 Weather Reports


Display with metric or nautical units.
time (UTC)temp
F
wind
direction
speed
MPH
gust
MPH
rain 1hr
in
rain 24hr
in
rain mn
in
humidity
%
barometer
mb
20190617073319 79 172 6.0 8.0 0.00 0.00 0.00 16 1012.2
20190617072330 78 194 4.0 6.0 0.00 0.00 0.00 16 1012.3
20190617071325 79 188 3.0 5.0 0.00 0.00 0.00 16 1012.4
20190617070317 80 192 5.0 7.0 0.00 0.00 0.00 16 1012.1
20190617065329 81 168 5.0 6.0 0.00 0.00 0.00 16 1012.1
20190617064321 81 167 4.0 6.0 0.00 0.00 0.00 16 1012.1
20190617063316 81 166 5.0 6.0 0.00 0.00 0.00 15 1011.9
20190617062328 82 168 5.0 6.0 0.00 0.00 0.00 14 1012.1
20190617061319 82 155 3.0 7.0 0.00 0.00 0.00 14 1012.1
20190617060315 81 159 5.0 8.0 0.00 0.00 0.00 12 1012.1
20190617055327 81 169 6.0 9.0 0.00 0.00 0.00 11 1012.2
20190617054318 82 175 6.0 9.0 0.00 0.00 0.00 10 1012.2
20190617053330 83 184 6.0 8.0 0.00 0.00 0.00 10 1011.9
20190617052326 84 175 7.0 10.0 0.00 0.00 0.00 9 1011.7
20190617051316 84 207 5.0 7.0 0.00 0.00 0.00 9 1011.8
20190617050328 83 248 4.0 7.0 0.00 0.00 0.00 9 1011.6
20190617045324 83 261 2.0 8.0 0.00 0.00 0.00 9 1011.3
20190617044315 84 180 2.0 7.0 0.00 0.00 0.00 9 1011.2
20190617043327 84 173 5.0 7.0 0.00 0.00 0.00 9 1011.1
20190617042319 85 167 5.0 6.0 0.00 0.00 0.00 8 1010.8
20190617041313 85 193 5.0 6.0 0.00 0.00 0.00 8 1010.6
20190617040325 86 198 6.0 8.0 0.00 0.00 0.00 8 1010.7
20190617035317 86 182 5.0 6.0 0.00 0.00 0.00 7 1010.3
20190617034312 86 175 4.0 5.0 0.00 0.00 0.00 7 1010.2
20190617033324 87 184 3.0 6.0 0.00 0.00 0.00 7 1010.1
20190617032316 88 229 4.0 5.0 0.00 0.00 0.00 7 1009.9
20190617031327 88 234 3.0 4.0 0.00 0.00 0.00 7 1009.9
20190617030322 89 234 3.0 7.0 0.00 0.00 0.00 7 1009.9
20190617025314 90 233 5.0 8.0 0.00 0.00 0.00 6 1009.7
20190617024326 91 236 8.0 12.0 0.00 0.00 0.00 6 1009.7
20190617023318 91 228 7.0 14.0 0.00 0.00 0.00 6 1009.6
20190617022313 92 211 9.0 16.0 0.00 0.00 0.00 6 1009.3
20190617021325 93 234 9.0 19.0 0.00 0.00 0.00 6 1009.2
20190617020317 93 215 9.0 18.0 0.00 0.00 0.00 5 1009.2
20190617015313 94 246 11.0 16.0 0.00 0.00 0.00 5 1009.0
20190617014324 95 227 10.0 18.0 0.00 0.00 0.00 5 1009.0
20190617013316 95 234 12.0 22.0 0.00 0.00 0.00 5 1009.0
20190617012328 96 249 13.0 19.0 0.00 0.00 0.00 5 1009.0
20190617011323 96 215 12.0 18.0 0.00 0.00 0.00 5 1008.9
20190617010315 97 272 10.0 16.0 0.00 0.00 0.00 6 1008.8
20190617005327 97 277 10.0 16.0 0.00 0.00 0.00 6 1008.8
20190617004322 97 239 12.0 22.0 0.00 0.00 0.00 6 1008.8
20190617003314 97 263 14.0 22.0 0.00 0.00 0.00 6 1008.7
20190617002326 98 236 12.0 19.0 0.00 0.00 0.00 6 1008.6
20190617001317 99 248 15.0 20.0 0.00 0.00 0.00 6 1008.7
20190617000313 99 283 4.0 16.0 0.00 0.00 0.00 6 1008.7
20190616235325 98 331 3.0 13.0 0.00 0.00 0.00 7 1008.8
20190616234316 99 309 9.0 13.0 0.00 0.00 0.00 7 1008.8
20190616233312 98 291 2.0 14.0 0.00 0.00 0.00 7 1008.9
20190616232324 98 230 6.0 15.0 0.00 0.00 0.00 7 1009.0
20190616231315 98 252 12.0 19.0 0.00 0.00 0.00 8 1009.0
20190616230327 99 238 13.0 16.0 0.00 0.00 0.00 8 1009.1
20190616225322 97 99 2.0 14.0 0.00 0.00 0.00 9 1009.1
20190616224313 98 306 11.0 18.0 0.00 0.00 0.00 9 1009.3
20190616223326 97 10 8.0 16.0 0.00 0.00 0.00 9 1009.4
20190616222318 96 137 11.0 14.0 0.00 0.00 0.00 10 1009.6
20190616221313 97 226 4.0 17.0 0.00 0.00 0.00 10 1009.7
20190616220325 98 171 8.0 16.0 0.00 0.00 0.00 9 1009.8
20190616215317 98 238 10.0 18.0 0.00 0.00 0.00 9 1010.0
20190616214311 97 275 8.0 14.0 0.00 0.00 0.00 10 1010.0
20190616213323 97 235 11.0 18.0 0.00 0.00 0.00 10 1010.1
20190616212315 97 270 10.0 17.0 0.00 0.00 0.00 9 1010.2
20190616211326 97 231 8.0 12.0 0.00 0.00 0.00 9 1010.2
20190616210323 97 315 8.0 19.0 0.00 0.00 0.00 10 1010.4
20190616205314 98 294 11.0 15.0 0.00 0.00 0.00 9 1010.4
20190616204326 97 254 8.0 15.0 0.00 0.00 0.00 9 1010.6
20190616203322 96 291 9.0 18.0 0.00 0.00 0.00 10 1010.8
20190616202313 95 324 10.0 16.0 0.00 0.00 0.00 10 1010.9
20190616201324 95 306 12.0 17.0 0.00 0.00 0.00 10 1011.1
20190616200315 95 340 8.0 19.0 0.00 0.00 0.00 10 1011.1
20190616195331 94 297 8.0 18.0 0.00 0.00 0.00 11 1011.2
20190616194321 96 258 12.0 19.0 0.00 0.00 0.00 11 1011.5
20190616193314 94 236 6.0 12.0 0.00 0.00 0.00 11 1011.6
20190616192325 94 304 8.0 11.0 0.00 0.00 0.00 12 1011.9
20190616191321 94 218 3.0 9.0 0.00 0.00 0.00 12 1012.0
20190616190313 93 230 7.0 15.0 0.00 0.00 0.00 12 1012.2
20190616185324 93 253 9.0 14.0 0.00 0.00 0.00 13 1012.3
20190616184319 93 71 4.0 9.0 0.00 0.00 0.00 13 1012.5
20190616183331 93 350 3.0 11.0 0.00 0.00 0.00 13 1012.7
20190616182322 92 234 8.0 13.0 0.00 0.00 0.00 14 1012.7
20190616181314 91 22 4.0 11.0 0.00 0.00 0.00 14 1012.8
20190616180330 91 265 5.0 16.0 0.00 0.00 0.00 15 1012.8
20190616175322 90 266 2.0 16.0 0.00 0.00 0.00 15 1012.9
20190616174312 90 239 6.0 15.0 0.00 0.00 0.00 15 1013.0
20190616173329 90 307 10.0 13.0 0.00 0.00 0.00 15 1012.9
20190616172320 89 290 6.0 12.0 0.00 0.00 0.00 16 1013.1
20190616171311 90 288 4.0 12.0 0.00 0.00 0.00 16 1013.1
20190616170324 89 292 7.0 12.0 0.00 0.00 0.00 16 1013.3
20190616165320 89 312 7.0 12.0 0.00 0.00 0.00 16 1013.2
20190616164330 89 305 3.0 10.0 0.00 0.00 0.00 17 1013.3
20190616163323 88 240 7.0 10.0 0.00 0.00 0.00 17 1013.5
20190616162318 87 237 6.0 10.0 0.00 0.00 0.00 17 1013.4
20190616161329 87 276 4.0 11.0 0.00 0.00 0.00 18 1013.7
20190616160320 86 193 3.0 8.0 0.00 0.00 0.00 18 1013.7
20190616155312 87 238 4.0 9.0 0.00 0.00 0.00 18 1013.8
20190616154327 85 254 1.0 7.0 0.00 0.00 0.00 19 1013.7
20190616153319 85 250 3.0 7.0 0.00 0.00 0.00 19 1013.8
20190616152330 85 305 3.0 5.0 0.00 0.00 0.00 19 1013.7
20190616151323 84 236 4.0 5.0 0.00 0.00 0.00 20 1013.9
20190616150318 83 220 4.0 7.0 0.00 0.00 0.00 20 1014.0
20190616145330 82 247 3.0 8.0 0.00 0.00 0.00 21 1014.0
20190616144321 82 239 2.0 7.0 0.00 0.00 0.00 21 1014.0
20190616143317 81 240 4.0 7.0 0.00 0.00 0.00 21 1014.0
20190616142329 81 231 5.0 6.0 0.00 0.00 0.00 22 1013.9
20190616141319 79 191 2.0 4.0 0.00 0.00 0.00 23 1013.9
20190616140331 79 191 3.0 4.0 0.00 0.00 0.00 23 1013.8
20190616135327 79 150 2.0 3.0 0.00 0.00 0.00 24 1013.7
20190616134319 78 150 0.0 3.0 0.00 0.00 0.00 24 1013.7
20190616133331 78 150 2.0 5.0 0.00 0.00 0.00 25 1013.5
20190616132326 78 76 2.0 3.0 0.00 0.00 0.00 24 1013.6
20190616131318 76 76 3.0 4.0 0.00 0.00 0.00 25 1013.6
20190616130329 75 75 2.0 3.0 0.00 0.00 0.00 26 1013.4
20190616125321 74 74 3.0 5.0 0.00 0.00 0.00 26 1013.4
20190616124316 75 75 2.0 5.0 0.00 0.00 0.00 26 1013.3
20190616123328 74 86 5.0 6.0 0.00 0.00 0.00 26 1013.1
20190616122319 75 165 4.0 5.0 0.00 0.00 0.00 26 1013.1
20190616121314 76 165 2.0 5.0 0.00 0.00 0.00 24 1013.0
20190616120326 76 165 4.0 4.0 0.00 0.00 0.00 24 1012.9
20190616115318 75 165 1.0 2.0 0.00 0.00 0.00 25 1012.8
20190616114327 76 165 0.0 3.0 0.00 0.00 0.00 24 1012.7
20190616113323 76 165 1.0 5.0 0.00 0.00 0.00 24 1012.7
20190616112314 75 165 3.0 5.0 0.00 0.00 0.00 24 1012.7
20190616111326 75 168 1.0 2.0 0.00 0.00 0.00 25 1012.8
20190616110318 75 168 1.0 5.0 0.00 0.00 0.00 26 1012.5
20190616105314 76 173 0.0 3.0 0.00 0.00 0.00 25 1012.3
20190616104325 78 173 1.0 6.0 0.00 0.00 0.00 24 1012.3
20190616103317 78 168 5.0 8.0 0.00 0.00 0.00 25 1012.3
20190616102313 77 171 5.0 6.0 0.00 0.00 0.00 25 1012.3
20190616101324 77 171 5.0 7.0 0.00 0.00 0.00 25 1012.2
20190616100316 78 174 6.0 7.0 0.00 0.00 0.00 25 1012.3
20190616095328 78 175 5.0 7.0 0.00 0.00 0.00 25 1012.2
20190616094323 78 181 6.0 8.0 0.00 0.00 0.00 25 1012.2
20190616093315 78 168 4.0 7.0 0.00 0.00 0.00 25 1012.2
20190616092327 78 170 5.0 6.0 0.00 0.00 0.00 24 1012.3
20190616091322 78 180 4.0 6.0 0.00 0.00 0.00 24 1012.3
20190616090313 79 184 6.0 8.0 0.00 0.00 0.00 23 1012.3
20190616085326 79 183 5.0 7.0 0.00 0.00 0.00 22 1012.5
20190616084317 79 180 5.0 7.0 0.00 0.00 0.00 22 1012.4
20190616083312 79 180 4.0 6.0 0.00 0.00 0.00 21 1012.3
20190616082324 79 180 4.0 5.0 0.00 0.00 0.00 21 1012.5
20190616081316 80 179 5.0 7.0 0.00 0.00 0.00 20 1012.4
20190616080312 79 176 3.0 5.0 0.00 0.00 0.00 20 1012.7
20190616075323 79 177 4.0 5.0 0.00 0.00 0.00 19 1012.6
20190616074314 80 176 5.0 7.0 0.00 0.00 0.00 19 1012.8